Temp
16 15 15 15 15 15 15 16 16 16 16 16 16 16 16 16 17 17 17 17 16 16 16 16 16 17 17 17 17 17 17 17 17
16 16 16 16 15 15 15 15 15 16 16 16 16 16 16 16 18 18 17 17 17 15 16 16 16 16 17 17 17 17 17 17 17
16 16 16 16 15 15 15 15 15 16 16 16 16 16 16 17 18 17 17 17 17 16 16 16 16 16 17 17 17 17 17 17 17
16 16 16 16 15 15 15 15 15 15 15 16 16 16 17 16 18 17 18 17 17 16 16 16 16 17 17 17 17 17 17 17 17
16 16 16 16 15 15 15 15 16 16 16 16 16 17 17 18 18 18 16 17 16 16 16 16 17 17 17 17 17 17 17 17 17
17 17 16 16 16 16 16 16 16 16 17 17 17 17 17 18 17 17 16 16 16 16 16 16 16 16 16 16 16 16 17 17 17
17 17 17 17 17 16 16 17 17 17 17 17 17 17 17 17 17 16 16 16 15 16 16 15 15 15 15 15 15 15 15 15 15
17 18 17 17 17 17 17 17 17 16 17 17 17 16 17 17 16 15 15 15 14 15 14 14 14 14 14 14 14 14 14 14 14
18 18 17 17 17 17 17 17 16 16 16 16 16 16 16 15 15 14 14 14 13 13 13 13 12 12 13 13 12 12 13 13 13
18 18 18 17 17 17 16 16 16 16 16 15 15 15 14 14 14 14 13 13 12 12 11 11 11 11 11 12 11 12 12 12 12
18 18 17 17 17 17 16 15 15 15 15 15 15 14 14 13 13 13 11 11 10 10 10 9 10 10 10 10 11 11 10 11 11
17 17 16 15 15 15 15 14 14 14 14 14 14 13 13 12 12 12 11 11 10 10 10 9 8 9 9 9 10 10 10 9 10
17 16 15 15 14 14 14 13 13 13 13 13 13 13 12 12 11 11 11 10 10 9 9 9 9 9 8 8 8 9 8 8 9
16 16 15 13 13 13 13 12 12 12 12 12 13 12 11 11 11 11 10 9 8 8 8 7 7 6 6 6 7 7 7 7 8
15 15 14 13 12 12 11 11 11 10 11 12 12 11 11 10 10 10 9 8 8 8 7 8 8 6 5 5 5 6 6 6 7
15 15 14 13 11 11 11 10 11 10 9 12 13 12 10 10 10 9 9 8 8 7 7 7 7 7 6 5 4 5 5 5 6
14 13 12 11 10 10 10 10 10 9 8 10 11 14 13 11 10 10 8 8 8 7 7 6 6 6 6 5 4 4 4 4 5
13 12 11 11 9 9 8 9 9 10 8 8 10 13 13 10 10 9 9 8 7 6 6 5 5 5 5 4 4 3 2 3 4
11 12 9 8 8 8 8 7 8 8 9 8 7 6 7 10 10 10 9 7 6 6 5 5 5 4 4 3 3 2 2 2 3
10 10 8 8 7 7 7 7 7 7 7 7 6 6 6 6 7 8 9 7 7 6 5 4 4 4 4 3 3 2 1 1 2
Height
808 808 809 809 809 809 810 809 809 810 811 811 811 810 809 810 811 810 809 808 806 805 805 805 805 805 805 805 804 804 804 804 804
808 808 808 808 808 809 809 810 811 811 812 812 812 811 810 811 811 810 808 807 806 805 805 804 804 803 803 803 803 802 802 802 802
808 808 809 809 808 809 810 811 811 810 811 811 811 811 811 811 811 809 808 806 806 804 804 803 803 803 802 801 800 800 799 799 799
807 809 809 809 810 810 811 810 811 810 811 810 811 811 810 810 810 809 807 805 805 804 803 802 801 801 800 799 798 797 797 797 797
808 809 809 810 811 811 810 810 810 810 811 811 810 810 810 810 810 808 807 804 805 804 802 801 800 799 798 796 795 794 794 794 794
808 808 809 810 810 811 811 810 809 810 810 810 810 810 811 810 809 808 805 805 804 803 801 800 800 799 798 796 794 793 792 791 791
808 808 809 809 810 809 811 811 810 810 811 811 810 811 811 809 808 808 804 803 803 802 800 799 800 799 798 797 795 793 792 791 789
808 808 809 810 810 810 811 812 811 811 811 810 811 810 810 809 808 805 803 802 801 802 800 799 798 798 797 797 795 794 792 791 789
807 808 808 809 810 810 811 811 811 810 810 809 809 809 808 808 807 805 803 802 800 802 800 798 798 797 797 796 794 792 791 790 789
806 807 808 809 809 809 810 810 811 810 809 808 807 807 806 806 805 804 803 801 799 801 800 798 797 797 796 795 793 791 790 789 788
804 806 806 806 807 807 808 808 810 809 807 807 806 805 804 804 802 805 802 801 798 799 799 797 796 795 794 793 792 790 788 787 786
801 802 803 805 805 806 806 807 808 808 806 805 805 803 802 802 800 803 803 802 797 797 796 795 794 793 792 791 790 788 786 784 783
797 800 803 804 806 806 806 807 807 807 805 803 803 802 800 801 799 801 802 801 799 798 795 794 792 791 789 788 787 786 784 781 779
796 798 801 803 805 806 806 806 807 806 804 802 800 800 800 800 799 801 802 799 798 798 795 792 791 788 786 785 784 782 780 778 776
794 797 800 803 804 806 806 806 805 804 802 801 799 799 799 799 799 800 801 799 798 796 794 792 790 786 783 781 779 778 776 774 772
792 796 799 801 804 805 806 805 804 803 802 801 798 798 798 798 799 800 799 797 796 795 793 790 787 784 781 778 775 773 771 770 768
791 794 798 800 804 805 805 804 803 805 804 803 802 796 797 797 798 798 796 796 794 793 790 787 785 782 779 776 772 770 768 766 763
791 795 798 800 802 805 803 803 804 806 806 805 805 798 795 799 795 795 794 794 793 791 788 785 782 779 776 773 770 767 765 762 759
792 794 801 801 801 803 802 803 805 806 806 807 806 806 806 800 793 792 792 792 791 788 786 783 779 776 772 769 766 764 761 758 754
793 795 803 799 801 802 802 803 806 806 807 807 805 805 804 804 803 792 788 789 787 784 782 779 775 772 769 765 762 760 757 753 748
Wind_Speed
7 6 5 5 5 5 3 2 1 2 4 5 5 5 5 5 5 5 5 5 6 6 8 9 9 9 10 11 12 11 11 12 12
7 6 7 7 7 7 6 5 4 3 4 4 5 5 6 4 4 5 5 6 8 8 8 9 10 11 12 13 13 15 14 13 13
6 5 5 6 6 6 4 3 3 2 2 2 2 4 5 5 5 6 6 8 9 9 10 11 12 13 14 15 14 15 14 15 16
5 3 3 3 3 3 2 2 2 2 1 1 2 4 5 5 5 7 6 10 10 10 12 14 14 15 15 15 16 16 17 16 16
5 2 2 2 1 1 1 1 2 1 2 3 3 5 6 5 6 6 5 7 9 10 10 10 11 12 11 12 17 19 18 18 18
5 5 4 3 2 1 1 1 1 1 3 4 5 5 4 4 4 4 7 7 8 8 9 9 9 10 11 11 10 11 10 14 19
7 5 4 4 4 2 1 1 1 2 1 2 5 3 4 4 5 5 7 7 8 8 8 8 10 10 10 11 11 11 11 11 11
6 5 3 3 4 2 1 1 1 2 2 2 3 4 5 5 5 7 7 6 6 6 6 8 9 10 11 11 11 12 12 12 11
6 5 4 4 3 2 1 1 2 2 2 3 4 5 5 6 5 6 5 4 6 6 7 9 10 11 11 10 12 13 13 13 13
7 5 4 4 3 3 3 2 1 2 3 4 4 5 5 5 3 2 3 3 8 8 8 9 10 11 11 12 13 13 12 12 12
8 8 8 8 7 6 3 2 1 3 4 5 6 5 5 4 2 2 1 3 9 9 9 10 11 12 13 13 13 14 13 15 15
11 13 11 7 7 4 2 1 1 3 5 6 7 6 6 4 1 2 2 1 0 1 5 9 12 13 14 14 14 14 15 17 16
16 14 11 9 5 4 3 2 2 4 6 7 6 6 6 3 2 3 2 1 1 5 7 11 13 15 15 14 14 13 16 18 17
16 15 11 7 6 4 4 3 2 5 7 7 5 6 2 3 4 3 1 1 2 4 10 15 14 17 13 13 14 15 17 18 18
19 15 11 8 7 5 4 4 4 7 9 6 6 2 2 4 4 2 2 2 4 6 9 14 15 15 14 16 14 16 17 18 19
20 16 13 10 6 5 3 3 6 8 11 6 5 2 1 4 6 5 5 3 6 7 12 15 16 15 17 15 16 19 19 19 20
19 16 14 11 8 6 6 6 5 6 10 6 3 3 3 1 5 9 5 7 6 12 17 17 15 18 15 17 19 19 19 22 24
18 16 13 12 9 7 7 8 6 4 5 8 4 2 2 9 4 4 8 6 11 17 17 17 19 17 18 18 18 18 21 23 25
18 16 9 10 9 8 8 7 6 4 4 1 4 2 3 3 5 4 10 9 16 18 18 17 22 18 18 19 20 20 21 27 29
16 14 11 10 9 9 8 7 5 4 2 2 2 2 4 4 5 9 9 20 19 20 15 23 16 18 19 20 20 22 28 29 29
Wind_Direction
130 112 101 95 96 94 81 79 59 23 36 41 31 20 8 21 341 346 339 355 323 325 307 293 286 282 280 271 278 276 271 268 272
132 109 94 88 88 88 85 76 73 79 49 19 356 339 328 339 324 328 336 337 330 327 316 298 280 273 274 276 268 270 267 271 271
127 107 95 93 91 89 81 70 65 70 42 352 304 307 317 337 320 329 332 317 329 319 306 299 292 283 277 274 272 267 268 266 266
141 116 88 88 87 83 54 47 27 33 352 343 325 318 324 324 315 323 328 307 320 317 305 298 292 281 278 276 274 273 265 267 269
176 156 169 145 117 58 66 73 60 37 346 327 323 324 336 318 316 326 327 340 339 335 342 360 358 1 344 308 285 273 269 265 266
164 183 175 184 199 194 130 96 81 351 342 323 333 356 325 328 335 337 328 339 345 348 357 4 9 1 356 357 357 1 329 299 280
170 186 212 220 225 209 261 321 352 25 351 337 3 349 335 334 335 325 320 325 346 350 6 17 13 21 19 16 7 3 2 7 2
191 194 207 206 216 199 223 310 60 73 35 3 335 328 322 318 318 311 316 326 351 2 30 30 30 21 14 9 12 10 6 360 353
189 189 181 180 190 195 173 153 102 58 12 355 331 324 327 319 320 323 321 359 54 37 56 43 25 15 9 6 360 353 345 342 340
182 181 177 172 157 145 125 107 32 348 346 341 331 323 325 321 313 301 315 46 76 68 48 36 25 14 6 356 351 349 345 342 337
178 179 175 171 181 184 206 133 7 341 345 328 319 314 316 304 308 261 14 139 84 66 48 30 16 6 356 346 340 337 337 331 324
185 185 176 162 170 162 133 86 27 345 339 323 310 306 303 276 240 207 181 63 241 357 8 9 4 355 348 339 334 328 326 326 319
193 180 178 173 143 131 116 88 10 346 341 324 311 306 300 234 176 163 166 106 45 338 328 337 338 339 339 333 329 322 320 320 315
180 177 172 152 141 126 111 73 31 357 349 332 322 315 268 188 157 161 153 17 354 330 333 340 340 335 336 333 325 320 316 314 310
176 169 158 144 138 118 105 91 46 24 354 328 324 319 238 191 183 193 278 297 327 325 333 332 325 325 326 323 322 323 317 313 311
173 166 158 143 128 124 119 90 53 24 6 348 336 275 235 236 231 260 290 296 310 317 325 325 324 321 320 321 321 321 318 315 312
163 157 153 139 129 113 91 76 60 38 25 9 309 321 208 250 215 285 270 299 315 319 322 322 320 319 314 313 316 317 317 313 310
155 155 145 140 133 116 93 73 67 49 38 36 360 305 315 333 261 257 297 292 312 318 315 314 315 311 310 311 310 310 312 312 308
149 143 138 135 117 113 92 80 72 53 36 31 36 13 311 322 308 267 296 290 305 306 308 306 309 306 307 306 305 307 309 308 305
147 143 147 119 115 105 100 88 78 64 49 16 351 312 296 269 276 299 306 303 309 303 304 305 298 301 304 304 304 305 307 306 302